Content
SEND FEEDBACK

Daily
Averages
Monthly
Summary
United States of America

LIVONIA, MICHIGAN


Home > North America > United States > Michigan
Elevation: 778 feet     Latitude: 42 13N     Longitude: 083 31W

WEATHER
 
SELECT A DAY
Number of Records: 205,084;   Date Range: 1/1/95 - 9/29/14
 
SHARE

PRINT THIS DATA

[ ← Previous Day ]
WEATHER ALMANAC - MAY 9, 2013
[ Next Day → ]
[ °C ]   °F
Weather ElementAverageHighLow
Temperature64.2 °F82 °F (3:53 pm)48.9 °F (6:53 am)
Dewpoint49.4 °F55 °F (10:53 am)45 °F (6:53 am)
Humidity63.4 %88 % (6:19 am)30 % (1:53 pm)
Barometer29.94 in29.97 in (7:17 am)29.89 in (11:53 pm)
Wind Speed2.6 mph11.5 mph (4:53 pm)
Weather ElementAverage
Visibility7.1 mi
Wind DirectionNE (48.5 °)

Weather ElementTotal
Precipitation---
Cooling Degree Days0.5 (Base 65)
Growing Degree Days15.5 (Base 50)
Averaged from 27 records on May 9, 2013
WEATHER CONDITIONS BREAKOUT
WIND DIRECTION BREAKOUT
WEATHER BY HOUR - MAY 9, 2013
[ °C ]   °F
Local TimeTemperatureDewpointHumidityBarometerVisibilityWind DirectionWind SpeedGust SpeedPrecipitationEventsConditions
1:53 AM57.9 °F53.1 °F84 %29.95 in9.0 miCalmClear
2:53 AM57.0 °F50.0 °F77 %29.93 in10.0 miCalmClear
3:53 AM55.9 °F51.1 °F84 %29.93 in8.0 miCalmClear
4:53 AM52.0 °F48.0 °F86 %29.93 in3.0 miNE (40°)4.6 mphClear
5:53 AM52.0 °F48.0 °F86 %29.93 in5.0 miCalmPartly Cloudy
6:05 AM50.0 °F46.4 °F87 %29.94 in2.0 miCalmMostly Cloudy
6:07 AM50.0 °F46.4 °F87 %29.94 in0.8 miCalmMist
6:19 AM51.8 °F48.2 °F88 %29.95 in0.2 miCalmFogFog
6:29 AM50.0 °F46.4 °F87 %29.96 in1.2 miCalmMostly Cloudy
6:36 AM50.0 °F46.4 °F87 %29.96 in2.0 miCalmScattered Clouds
6:53 AM48.9 °F45.0 °F86 %29.96 in7.0 miCalmPartly Cloudy
7:17 AM53.6 °F48.2 °F82 %29.97 in2.5 miCalmClear
7:53 AM59.0 °F54.0 °F83 %29.96 in3.0 miCalmHaze
8:53 AM66.0 °F54.0 °F65 %29.96 in8.0 miNNE (20°)3.5 mphClear
9:53 AM71.1 °F54.0 °F55 %29.97 in10.0 miCalmClear
10:53 AM75.0 °F55.0 °F50 %29.97 in10.0 miCalmClear
11:53 AM79.0 °F53.1 °F40 %29.97 in10.0 miWSW (250°)3.5 mphClear
1:53 PM80.1 °F46.0 °F30 %29.96 in10.0 miCalmScattered Clouds
2:53 PM81.0 °F48.9 °F33 %29.94 in10.0 miCalmOvercast
3:53 PM82.0 °F48.0 °F30 %29.92 in10.0 miSouth (170°)4.6 mphPartly Cloudy
4:53 PM79.0 °F51.1 °F38 %29.91 in10.0 miSSE (160°)11.5 mphPartly Cloudy
5:53 PM79.0 °F50.0 °F36 %29.90 in10.0 miSSE (160°)10.4 mphClear
6:53 PM75.9 °F48.9 °F38 %29.91 in10.0 miSE (140°)9.2 mphPartly Cloudy
7:53 PM72.0 °F48.9 °F44 %29.90 in10.0 miSSE (150°)6.9 mphClear
8:53 PM70.0 °F45.0 °F41 %29.90 in10.0 miSSE (150°)9.2 mphClear
10:53 PM68.0 °F48.0 °F49 %29.91 in10.0 miCalmOvercast
11:53 PM66.0 °F51.1 °F59 %29.89 in10.0 miENE (70°)5.8 mphOvercast
Hourly data recorded from KYIP, located miles away from Livonia, Michigan







STORIES FROM OUR PARTNERS